Location: Fours
(44.3167°N, 6.7000°E)
Time: 11:00:46
(UTC+00:00)

Cosmos 2227 Rocket - Pass Details

Date: 16 October 2021
Orbit: 839 x 845 km, 71.0° (Epoch: 08 December)

Event Time Altitude Azimuth Distance (km) Brightness Sun altitude
Rises 17:42:24 0° 330° (NNW) 3,413 5.7 -10.6°
Reaches altitude 10° 17:44:53 10° 327° (NNW) 2,474 5.1 -11.1°
Maximum altitude 17:50:24 55° 251° (WSW) 1,008 3.0 -12.0°
Drops below altitude 10° 17:55:53 10° 175° (S) 2,454 4.6 -13.0°
Sets 17:58:22 0° 170° (S) 3,384 5.2 -13.5°
